Weather History for Dallas/Ft Worth, TX

Change the Weather History Date:

Friday, March 14, 2014

  Actual Average Record
Temperature  
Mean Temperature 61 °F 57 °F  
Max Temperature 73 °F 68 °F 92 °F (1989)
Min Temperature 48 °F 47 °F 26 °F (1988)
Degree Days  
Heating Degree Days 4 9  
Month to date heating degree days 204 145  
Since 1 July heating degree days 2377 2077  
Cooling Degree Days 0 1  
Month to date cooling degree days 6 12  
Year to date cooling degree days 6 19  
Growing Degree Days 10 (Base 50)    
Moisture  
Dew Point 44 °F    
Average Humidity 58    
Maximum Humidity 77    
Minimum Humidity 38    
Precipitation  
Precipitation 0.00 in 0.12 in 1.01 in (1990)
Month to date precipitation 0.10 1.59  
Year to date precipitation 0.84 6.38  
Snow  
Snow 0.00 in 0.00 in 2.20 in (1962)
Month to date snowfall 0.1 0.1  
Since 1 July snowfall 2.9 1.1  
Snow Depth 0.00 in    
Sea Level Pressure  
Sea Level Pressure 29.99 in    
Wind  
Wind Speed 14 mph (South)    
Max Wind Speed 31 mph    
Max Gust Speed 36 mph    
Visibility 10 miles    
Events      
T = Trace of Precipitation, MM = Missing Value Source: NWS Daily Summary

Daily Weather History Graph

Daily Weather History Graph

Search for Another Location

Airport:

Trip Planner

Search our weather history database for the weather conditions in past years. The results will help you decide how hot, cold, wet, or windy it might be!

Date:

Astronomy

Mar. 14, 2014 Rise Set
Actual Time 7:39 AM CDT 7:35 PM CDT
Civil Twilight 7:15 AM CDT 7:59 PM CDT
Nautical Twilight 6:46 AM CDT 8:28 PM CDT
Astronomical Twilight 6:17 AM CDT 8:57 PM CDT
Moon 6:02 PM CDT (3/14) 6:15 AM CDT (3/14)
Length of Visible Light 12h 44m
Length of Day
11h 55m
Waxing Gibbous, 96% of the Moon is Illuminated
Mar 14
Waxing Gibbous
Mar 16
Full
Mar 23
Last Quarter
Mar 30
New
Apr 7
First Quarter

Hourly Weather History & Observations

Time (CDT) Temp. Dew Point Humidity Pressure Visibility Wind Dir Wind Speed Gust Speed Precip Events Conditions
12:53 AM 55.0 °F 30.0 °F 38% 30.03 in 10.0 mi South 16.1 mph - N/A   Clear
1:53 AM 53.1 °F 30.0 °F 41% 30.03 in 10.0 mi South 15.0 mph - N/A   Clear
2:53 AM 51.1 °F 30.9 °F 46% 30.04 in 10.0 mi South 13.8 mph - N/A   Clear
3:53 AM 51.1 °F 33.1 °F 50% 30.02 in 10.0 mi South 13.8 mph - N/A   Clear
4:53 AM 50.0 °F 36.0 °F 59% 30.01 in 10.0 mi South 9.2 mph - N/A   Clear
5:53 AM 50.0 °F 39.0 °F 66% 30.00 in 10.0 mi South 12.7 mph - N/A   Clear
6:53 AM 50.0 °F 39.9 °F 68% 30.00 in 10.0 mi South 13.8 mph - N/A   Partly Cloudy
7:53 AM 48.0 °F 41.0 °F 77% 30.03 in 10.0 mi South 8.1 mph - N/A   Partly Cloudy
8:53 AM 51.1 °F 43.0 °F 74% 30.04 in 10.0 mi South 12.7 mph - N/A   Partly Cloudy
9:53 AM 55.9 °F 46.0 °F 69% 30.04 in 10.0 mi South 13.8 mph - N/A   Scattered Clouds
10:53 AM 61.0 °F 48.0 °F 62% 30.05 in 10.0 mi South 21.9 mph 27.6 mph N/A   Scattered Clouds
11:53 AM 64.0 °F 48.9 °F 58% 30.02 in 10.0 mi South 24.2 mph - N/A   Mostly Cloudy
12:53 PM 66.9 °F 50.0 °F 54% 30.01 in 10.0 mi SSW 25.3 mph - N/A   Mostly Cloudy
1:08 PM 66.0 °F 48.9 °F 54% 30.02 in 10.0 mi SSW 24.2 mph 28.8 mph N/A   Mostly Cloudy
1:53 PM 66.9 °F 50.0 °F 54% 29.98 in 10.0 mi SSW 19.6 mph 27.6 mph N/A   Mostly Cloudy
2:53 PM 70.0 °F 48.9 °F 47% 29.96 in 10.0 mi SSW 15.0 mph 26.5 mph N/A   Mostly Cloudy
3:53 PM 71.1 °F 48.9 °F 45% 29.94 in 10.0 mi South 11.5 mph - N/A   Mostly Cloudy
4:53 PM 72.0 °F 48.9 °F 44% 29.93 in 10.0 mi South 10.4 mph 23.0 mph N/A   Mostly Cloudy
5:53 PM 71.1 °F 50.0 °F 47% 29.92 in 10.0 mi SSE 12.7 mph - N/A   Mostly Cloudy
6:53 PM 70.0 °F 48.9 °F 47% 29.93 in 10.0 mi SSE 9.2 mph - N/A   Overcast
7:53 PM 66.9 °F 48.9 °F 52% 29.94 in 10.0 mi SSE 9.2 mph - N/A   Overcast
8:53 PM 66.0 °F 52.0 °F 60% 29.96 in 10.0 mi SSE 12.7 mph - N/A   Overcast
9:53 PM 64.9 °F 52.0 °F 63% 29.96 in 10.0 mi SSE 12.7 mph - N/A   Overcast
10:53 PM 64.0 °F 52.0 °F 65% 29.96 in 10.0 mi SSE 9.2 mph - N/A   Overcast
11:53 PM 63.0 °F 52.0 °F 67% 29.95 in 10.0 mi SSE 9.2 mph - N/A   Overcast